Regional Weather Roundup
Issued by NWS

Home | Current Version | Previous Version | Text Only | Print | Product List | Glossary Off
Versions: 1 2 3 4 5 6 7 8 9 10 11 12 13 14 15 16 17 18 19 20 21 22 23 24 25 26 27 28 29 30 31 32 33 34 35 36 37 38 39 40 41 42 43 44 45 46 47 48 49 50

000
ASUS43 KFSD 211310
RWRSD

WEATHER ROUNDUP FOR SOUTH DAKOTA
NATIONAL WEATHER SERVICE SIOUX FALLS SD
800 AM CDT SAT OCT 21 2017

NOTE: "FAIR" INDICATES FEW OR NO CLOUDS BELOW 12,000 FEET WITH NO
SIGNIFICANT WEATHER AND/OR OBSTRUCTIONS TO VISIBILITY.


SDZ001>005-009-010-012>017-211400-
NORTHWEST AND NORTH CENTRAL SOUTH DAKOTA

CITY           SKY/WX    TMP DP  RH WIND       PRES   REMARKS
BUFFALO          N/A     46  26  45 W29G35    29.60R
MOBRIDGE       CLOUDY    53  40  61 NW23G29   29.55R
$$

SDZ012>016-024>037-041>051-057-063-072>074-211400-
SOUTHWEST AND SOUTH CENTRAL SOUTH DAKOTA

CITY           SKY/WX    TMP DP  RH WIND       PRES   REMARKS
RAPID CTY ARPT MOCLDY    50  25  37 NW24G35   29.68R
PIERRE         CLOUDY    52  40  63 NW24G37   29.57R
CUSTER         CLOUDY    37  21  52 NW12G18   29.72R
ELLSWORTH AFB  MOCLDY    49  24  37 NW30G40   29.67R
PHILIP         CLOUDY    46  45  96 NW16G29   29.63R
PINE RIDGE     LGT RAIN  48  40  73 N5        29.70S
SPEARFISH      FAIR      45  25  45 W13G23    29.73S
WINNER         FAIR      54  40  59 NW20G30   29.59R
$$

SDZ004>011-016>023-039-040-211400-
NORTHEAST SOUTH DAKOTA

CITY           SKY/WX    TMP DP  RH WIND       PRES   REMARKS
ABERDEEN       CLOUDY    53  45  74 W8        29.48R
WATERTOWN      CLOUDY    60  59  96 S15       29.46S
BROOKINGS      CLOUDY    63  57  82 S16       29.50S
SISSETON         N/A     63  58  83 S8        29.45R
$$

SDZ017-020-022-023-036>040-048>070-211400-
SOUTHEAST SOUTH DAKOTA

CITY           SKY/WX    TMP DP  RH WIND       PRES   REMARKS
SIOUX FALLS    CLOUDY    65  61  87 S16       29.52R
HURON          CLOUDY    60  57  89 SW6       29.46R
CHAMBERLAIN    PTCLDY    57  45  64 NW28G37   29.54R
MITCHELL       PTCLDY    63  59  87 S8        29.47R
YANKTON        MOCLDY    69  62  78 S12       29.50R
$$

ABBREVIATIONS USED IN REMARKS
   TC - TEMPERATURE IN CELSIUS
  WCI - WIND CHILL INDEX
   HX - HEAT INDEX
  VSB - VISIBILITY





USA.gov is the U.S. government's official web portal to all federal, state and local government web resources and services.